PROFILE

 METAR AND TAF INFORMATION
ADDS - METARS form results

(0105 UTC 20 February 2020)
http://aviationweather.gov/metar/data/
 
ULLI 200030Z 22003MPS 180V270 9999 BKN040 03/00 Q1005 R28L/290050 NOSIG
TAF ULLI 192257Z 2000/2024 24003MPS 9999 BKN011 BKN020 TEMPO 2000/2006 3100 -SHRA BKN007 BKN017CB TEMPO 2006/2018 3100 -SHSNRA BR BKN007 BKN015CB BECMG 2007/2009 16003MPS 

 AIRPORT MAP

 RUNWAY INFORMATION
Runway 10L Runway length 11146 ft Runway width 197 ft
Runway elevation 59 ft Runway displaced threshold 0 ft Runway heading 106
Runway 28R Runway length 11146 ft Runway width 197 ft
Runway elevation 66 ft Runway displaced threshold 0 ft Runway heading 286
Runway 10R Runway length 12402 ft Runway width 197 ft
Runway elevation 66 ft Runway displaced threshold 0 ft Runway heading 106
Runway 28L Runway length 12402 ft Runway width 197 ft
Runway elevation 79 ft Runway displaced threshold 0 ft Runway heading 286

 AIRPORT FREQUENCIES
Type APP Name PETERBURG Frequency 129.8 MHZ
Type ATIS Name ATIS Frequency 127.3 MHZ
Type GND Name TAXIING Frequency 121.7 MHZ
Type RDR Name KRUG Frequency 120.3 MHZ
Type TWR Name TWR Frequency 118.1 MHZ

 AIRPORT NEAR NAVIGATION AIDS
Type NDB Name Pulkovo Frequency 342 KHZ
Type NDB Name Pulkovo Frequency 525 KHZ
Type NDB Name Pulkovo Frequency 277 KHZ
Type NDB Name Pulkovo Frequency 303 KHZ
Type VOR-DME Name Sankt-Peterburg Frequency 113400 KHZ